Location: *
(34.6780°N, 135.8310°E)
Time: 06:58:50
(UTC+00:00)

Meteor 2-5 Rocket - Pass Details

Date: 18 October 2019
Orbit: 833 x 912 km, 81.2° (Epoch: 13 November)

Event Time Altitude Azimuth Distance (km) Brightness Sun altitude
Rises 19:59:47 0° 178° (S) 3,434 6.9 -14.1°
Reaches altitude 10° 20:02:12 10° 176° (S) 2,512 6.3 -13.6°
Maximum altitude 20:07:51 66° 95° (E) 966 4.3 -12.5°
Drops below altitude 10° 20:13:40 10° 15° (NNE) 2,578 6.4 -11.3°
Sets 20:16:10 0° 12° (NNE) 3,531 7.0 -10.8°
